Meteo Giornale » Osservazioni meteo Germania » Muenster-Osnabrueck
ore: 14:50 - Osservazioni Meteo Muenster-Osnabrueck
Lat. 52° 8' N Lon. 7° 42' E Alt. 48 metri s.l.m.
18 °C
Pioggia
Temp. 24 Ore
15 °C
20 °C
Ovest/Nord-Ovest
7.4 Km/h
Dew point 15 °C
Umidità 82 %
Visibilità 10 Km
Il sole sorge alle ore 06:40
Il sole tramonta alle ore 20:17
| Data e Ora | Cielo e Fenomeni | T °C | DP °C | Um. % | Pres. hPa | Vis. km | Vento km/h | |
|---|---|---|---|---|---|---|---|---|
| Oggi h: 14:50 | Pioggia | 18 | 15 | 82 | 1019 | 10 | O/NO 7.4 | |
| Oggi h: 14:20 | Pioggia | 19 | 14 | 72 | 1019 | 10 | O 33.3 | |
| Oggi h: 13:50 | Molto Nuvoloso | 20 | 15 | 72 | 1019 | 10 | O 16.7 | |
| Oggi h: 13:20 | Sereno | 19 | 16 | 82 | 1019 | 10 | O/SO 13 | |
| Oggi h: 12:50 | Poco Nuvoloso | 18 | 15 | 82 | 1019 | 10 | O/SO 16.7 | |
| Oggi h: 12:20 | Pioggia | 17 | 17 | 100 | 1019 | 10 | O 13 | |
| Oggi h: 11:50 | Pioggia Foschia | 18 | 15 | 82 | 1019 | 4 | O/SO 20.3 | |
| Oggi h: 11:20 | Pioggia | 18 | 15 | 82 | 1019 | 10 | SO 13 | |
| Oggi h: 10:50 | Coperto | 18 | 15 | 82 | 1019 | 10 | SO 11.1 | |
| Oggi h: 10:20 | Coperto | 18 | 15 | 82 | 1018 | 10 | SO 14.8 | |
| Oggi h: 09:50 | Molto Nuvoloso | 17 | 15 | 88 | 1018 | 10 | SO 14.8 | |
| Oggi h: 09:20 | Molto Nuvoloso | 17 | 15 | 88 | 1018 | 10 | SO 14.8 | |
| Oggi h: 08:50 | Molto Nuvoloso | 16 | 15 | 93 | 1018 | 10 | SO 11.1 | |
| Oggi h: 08:20 | Poco Nuvoloso | 16 | 15 | 93 | 1018 | 10 | SO 13 | |
| Oggi h: 07:50 | Sereno | 16 | 14 | 87 | 1017 | 10 | SO 11.1 | |
| Oggi h: 07:20 | Poco Nuvoloso | 15 | 14 | 93 | 1017 | 10 | SO 9.3 | |
| Oggi h: 06:50 | Nuvoloso | 15 | 14 | 93 | 1017 | 10 | S/SO 7.4 | |
| Oggi h: 06:20 | Molto Nuvoloso | 15 | 14 | 93 | 1017 | 10 | S/SO 7.4 | |
| Oggi h: 05:50 | Sereno | 15 | 14 | 93 | 1016 | 10 | S/SO 9.3 | |
| Oggi h: 05:20 | Sereno | 15 | 14 | 93 | 1016 | 10 | S/SO 7.4 | |
| Oggi h: 04:50 | Poco Nuvoloso | 16 | 14 | 87 | 1016 | 10 | S/SO 7.4 | |
| Oggi h: 04:20 | Molto Nuvoloso | 16 | 14 | 87 | 1016 | 10 | SO 9.3 | |
| Oggi h: 03:50 | Nuvoloso | 16 | 13 | 82 | 1016 | 10 | SO 7.4 | |
| Oggi h: 03:20 | Sereno | 16 | 13 | 82 | 1016 | 10 | SO 7.4 | |
| Oggi h: 02:50 | Sereno | 16 | 13 | 82 | 1016 | 10 | SO 9.3 | |
| Oggi h: 02:20 | Sereno | 16 | 13 | 82 | 1016 | 10 | SO 9.3 | |
| Oggi h: 01:50 | Sereno | 16 | 13 | 82 | 1016 | 10 | SO 11.1 | |
| Oggi h: 01:20 | Sereno | 16 | 13 | 82 | 1015 | 10 | SO 11.1 | |
| Oggi h: 00:50 | Poco Nuvoloso | 17 | 14 | 82 | 1015 | 10 | O/SO 14.8 | |
| Oggi h: 00:20 | Pioggia | 17 | 14 | 82 | 1015 | 10 | O/SO 16.7 | |
| Ieri h: 23:50 | Pioggia nelle vicinanze | 17 | 13 | 77 | 1015 | 10 | SO 14.8 | |
| Ieri h: 23:20 | Molto Nuvoloso | 17 | 14 | 82 | 1015 | 10 | O/SO 13 | |
| Ieri h: 22:50 | Molto Nuvoloso | 16 | 14 | 87 | 1015 | 10 | O 9.3 | |
| Ieri h: 22:20 | Pioggia | 17 | 14 | 82 | 1014 | 10 | O/SO 18.5 | |
| Ieri h: 21:50 | Pioggia | 17 | 14 | 82 | 1014 | 10 | O 14.8 | |
| Ieri h: 21:20 | Pioggia nelle vicinanze | 18 | 12 | 67 | 1013 | 10 | O/SO 20.3 | |
| Ieri h: 20:50 | Poco Nuvoloso | 19 | 12 | 63 | 1013 | 10 | SO 18.5 | |
| Ieri h: 20:20 | Nuvoloso | 19 | 13 | 68 | 1012 | 10 | O/SO 16.7 | |
| Ieri h: 19:50 | Molto Nuvoloso | 19 | 13 | 68 | 1012 | 10 | O/SO 14.8 | |
| Ieri h: 19:20 | Pioggia | 19 | 13 | 68 | 1012 | 10 | O/SO 16.7 | |
| Ieri h: 18:50 | Poco Nuvoloso | 19 | 12 | 63 | 1011 | 10 | O/SO 22.2 | |
| Ieri h: 18:20 | Sereno | 19 | 12 | 63 | 1011 | 10 | O/SO 25.9 | |
| Ieri h: 17:50 | Poco Nuvoloso | 19 | 12 | 63 | 1011 | 10 | O 29.6 | |
| Ieri h: 17:20 | Sereno | 20 | 12 | 59 | 1010 | 10 | O/SO 25.9 | |
| Ieri h: 16:50 | Molto Nuvoloso | 19 | 13 | 68 | 1010 | 10 | O/SO 31.5 | |
| Ieri h: 16:20 | Pioggia | 19 | 13 | 68 | 1010 | 10 | SO 24 | |
| Ieri h: 15:50 | Sereno | 20 | 14 | 68 | 1010 | 10 | S/SO 22.2 | |



